Wind_Speed
43 43 44 45 41 37 39 42 44 45 46 46 45 41 36 33 32 34 35 35 34 33 32 31 29 29 30 32 34 35 35 34 33 31 31 31 30 30 30 31 31 32
47 46 47 46 42 40 40 41 42 43 44 44 42 37 32 30 31 31 32 34 33 32 31 30 29 28 29 30 31 32 32 32 31 31 30 30 30 29 29 29 30 31
50 50 49 47 45 43 42 43 43 43 42 38 35 32 32 31 30 29 30 31 32 31 30 29 28 28 28 28 29 30 30 30 30 30 30 29 29 28 28 28 29 30
51 50 48 47 47 46 45 45 44 42 39 36 35 35 34 31 28 26 27 28 29 29 29 28 27 27 27 27 28 29 29 29 30 29 29 28 27 28 28 29 29 30
52 50 47 47 46 46 47 47 45 42 40 39 38 35 31 28 27 27 28 29 29 29 28 27 26 26 26 27 28 28 29 29 29 29 28 26 26 27 29 30 30 29
52 51 50 49 49 49 50 49 47 45 44 43 37 32 30 30 29 29 30 32 33 32 31 29 27 27 27 28 28 29 29 29 28 27 26 25 25 27 29 30 31 30
49 51 51 49 49 49 48 47 46 45 45 42 37 34 34 34 34 34 34 34 35 35 34 31 29 28 28 28 28 28 28 27 26 25 25 25 26 27 29 30 31 31
48 51 51 49 47 45 44 43 43 43 42 41 39 38 38 38 38 37 36 35 35 36 35 33 31 29 29 28 28 27 26 24 24 24 25 26 26 28 30 31 32 33
49 51 52 51 48 45 43 42 43 43 42 41 41 40 40 39 39 38 37 36 35 36 36 35 33 31 30 29 28 28 27 27 27 28 28 28 29 29 30 32 32 32
50 52 53 53 50 48 47 46 46 46 45 44 43 42 42 41 39 39 38 37 37 37 36 35 34 32 31 31 31 31 32 32 32 32 32 32 31 31 31 32 31 30
47 50 53 53 51 50 50 49 49 48 48 46 44 44 44 43 42 41 41 40 39 38 37 35 33 33 33 33 34 35 36 36 36 35 35 35 34 32 31 30 29 28
46 48 51 52 52 52 52 53 52 50 49 47 44 44 46 46 44 44 43 41 39 37 36 35 34 34 35 36 37 37 38 37 37 38 38 39 37 33 30 30 31 32
44 47 52 54 54 54 53 53 53 52 51 49 45 44 45 45 43 42 41 39 38 37 36 36 36 37 38 39 39 39 39 39 40 40 41 41 39 35 34 34 36 39
34 35 42 49 53 55 54 52 51 51 50 48 46 45 45 44 42 40 39 38 37 37 37 38 38 39 39 40 41 41 42 42 43 43 43 42 40 39 39 39 40 40
36 34 33 36 41 47 50 49 49 49 47 47 47 47 46 45 44 42 41 40 39 40 40 41 41 41 41 42 43 44 44 44 44 44 43 43 42 42 42 41 41 41
40 41 39 37 36 38 41 43 44 45 46 46 48 48 47 46 46 46 45 44 44 44 44 44 44 44 44 45 45 46 46 46 45 45 44 44 43 43 43 43 43 43
40 42 43 44 43 41 40 41 43 44 45 46 47 47 47 46 46 46 47 46 46 46 46 46 46 46 46 46 47 47 46 46 46 46 46 45 46 46 46 46 46 47
41 42 44 47 47 47 46 46 46 46 45 45 45 45 44 44 43 43 43 44 44 43 43 44 44 45 45 46 46 47 47 48 48 48 48 48 48 47 47 47 48 49
41 42 43 44 45 46 46 47 46 46 45 45 44 44 45 45 44 43 43 43 43 43 43 44 45 47 48 49 49 50 51 51 51 51 50 49 49 48 49 50 50 51
42 44 44 44 44 45 45 46 47 46 46 46 45 46 47 48 47 47 47 47 47 48 49 50 51 54 54 54 53 53 53 52 52 52 51 51 50 51 52 52 52 52
42 44 46 47 48 47 46 46 47 47 46 47 47 48 49 51 51 51 51 50 51 53 54 54 55 56 55 54 54 53 52 52 52 52 52 52 53 54 54 54 53 52
47 46 46 47 48 49 48 47 48 48 47 48 50 51 52 54 55 54 54 53 54 55 55 54 53 53 53 53 53 52 52 52 53 53 53 53 54 54 53 52 51 52
53 53 52 51 50 50 49 50 50 50 49 50 52 54 54 54 55 55 54 53 51 51 51 51 51 51 52 53 54 54 53 53 53 53 53 53 52 51 51 50 51 54
54 55 55 55 55 53 52 52 52 52 51 51 51 52 52 52 51 51 50 48 48 48 48 48 49 49 50 52 53 53 53 53 54 53 52 52 51 50 51 51 53 56
54 53 53 54 56 56 56 55 54 54 54 53 51 50 49 49 49 50 49 48 48 48 48 49 49 49 50 52 53 54 55 56 56 55 54 54 54 53 54 54 56 58
55 53 54 55 57 58 60 60 58 57 57 57 57 56 55 55 55 55 56 55 54 53 52 52 52 52 53 55 56 57 59 59 60 61 60 61 62 62 63 64 65 66
Wind_Direction
235 234 235 238 236 235 239 244 251 258 267 276 280 280 281 281 281 280 278 277 277 276 275 273 270 267 262 260 260 262 265 268 269 268 265 262 259 257 257 258 261 263
231 231 234 236 234 234 241 248 255 264 272 277 277 276 278 279 280 281 280 278 277 275 274 273 271 269 267 265 264 265 266 267 266 265 262 261 259 258 258 260 263 266
228 230 233 234 234 237 243 248 256 266 272 274 274 274 277 278 278 280 281 279 276 274 273 271 271 270 268 267 265 265 265 264 263 262 262 262 261 261 261 262 264 267
228 231 233 234 235 237 241 247 257 264 267 271 275 276 276 275 274 276 279 279 277 275 274 273 271 269 267 266 264 264 263 262 261 260 261 262 263 264 265 265 265 265
230 232 234 235 236 238 242 249 256 261 266 273 277 276 274 272 272 274 276 278 280 281 282 281 278 273 269 266 263 262 261 260 259 259 259 260 262 264 265 266 265 263
232 235 237 238 238 240 246 252 255 259 266 272 274 272 272 274 274 274 276 278 280 283 286 286 284 280 274 268 264 261 259 259 259 259 260 261 263 265 265 265 265 263
233 235 237 239 241 244 248 252 255 258 264 268 269 268 272 275 275 275 276 278 281 284 286 287 287 284 278 271 266 262 261 260 261 263 265 266 267 267 267 267 267 267
233 235 237 241 244 247 251 254 255 257 260 263 266 269 273 275 276 276 278 280 282 284 285 286 288 287 283 277 271 266 264 263 264 266 269 270 271 270 271 271 270 270
234 237 241 244 245 249 252 255 257 257 259 263 267 271 275 276 275 276 279 281 283 284 285 286 287 286 283 278 273 270 268 269 271 272 274 274 274 274 274 274 272 271
236 239 243 246 249 251 253 255 257 260 263 266 270 273 275 275 274 276 279 282 283 284 285 285 285 283 279 275 273 272 273 275 277 278 280 282 281 278 275 274 271 270
237 239 242 246 249 252 254 255 257 260 263 265 269 272 273 272 273 276 280 282 282 282 282 281 279 278 275 273 273 274 276 277 279 281 284 287 288 283 277 272 269 270
240 242 244 246 249 252 254 256 258 259 261 262 266 269 270 271 274 277 279 280 280 279 279 278 276 273 271 271 272 274 275 276 278 281 285 289 289 285 278 273 270 274
244 248 249 248 249 251 254 257 259 260 260 262 263 264 267 270 274 276 277 277 277 276 276 275 274 272 271 271 271 272 273 275 277 280 284 288 288 284 281 279 278 280
233 241 249 250 250 251 253 255 257 258 259 261 262 262 265 269 272 272 273 273 273 273 273 272 271 271 271 270 270 271 272 274 276 279 283 285 285 285 284 284 283 284
218 222 236 245 248 250 252 253 255 256 256 257 259 261 263 266 268 269 270 271 270 271 271 271 271 271 270 269 269 270 272 274 277 279 282 283 283 284 285 285 284 284
226 228 233 238 242 247 250 252 255 256 256 257 258 260 262 264 267 269 270 270 271 272 272 272 272 272 271 270 270 272 274 276 278 280 281 282 283 284 284 284 283 283
233 235 237 238 239 242 246 249 253 257 258 260 261 263 264 265 267 268 269 270 271 271 272 272 272 273 273 273 274 276 278 279 280 281 283 284 285 285 285 284 284 284
236 237 238 238 239 242 245 248 253 256 258 260 263 264 264 264 264 264 266 267 267 268 269 270 271 273 273 275 277 280 281 282 283 284 285 285 285 286 286 286 287 286
237 237 238 239 241 245 248 250 253 255 256 257 258 258 258 259 259 260 260 261 262 263 264 268 271 274 275 277 279 281 282 283 284 285 285 286 286 287 288 289 289 289
239 240 240 241 245 249 253 255 256 255 254 254 254 256 257 257 257 257 258 260 263 266 267 270 273 275 277 278 279 280 281 283 284 285 286 287 289 290 291 292 293 293
236 240 243 245 248 252 254 256 258 259 257 255 255 257 259 261 260 260 261 263 267 271 273 275 276 277 278 279 280 281 282 284 286 288 289 291 292 294 295 295 294 295
231 235 241 245 249 252 253 254 256 259 258 258 258 260 263 266 269 270 271 272 273 275 277 278 279 280 281 282 283 284 285 286 288 289 290 292 293 294 293 293 293 293
232 235 238 242 245 248 249 251 252 255 257 259 262 265 267 270 273 275 276 277 277 277 278 280 281 282 283 284 285 286 287 287 288 289 290 290 291 290 289 290 290 287
236 239 241 243 244 245 246 248 249 252 254 257 261 264 266 268 270 271 272 273 275 276 278 278 279 280 281 282 283 285 285 285 286 287 287 287 286 285 284 285 283 279
238 242 244 245 245 245 245 246 247 248 251 252 254 256 259 261 264 265 265 267 268 270 270 270 271 271 272 273 274 276 277 279 280 281 281 281 280 279 278 277 275 274
238 241 244 245 246 246 247 247 247 247 248 249 249 250 253 256 259 261 263 264 266 266 266 265 265 265 266 267 268 269 270 272 273 274 274 274 274 274 273 273 273 272
Height
10665 10665 10664 10662 10661 10660 10662 10664 10666 10667 10668 10667 10666 10665 10665 10666 10667 10667 10667 10667 10668 10669 10670 10671 10672 10673 10673 10674 10674 10674 10674 10674 10675 10675 10675 10675 10674 10674 10674 10674 10674 10673
10661 10661 10660 10659 10659 10658 10659 10661 10662 10663 10662 10661 10661 10661 10662 10662 10663 10663 10663 10663 10664 10665 10666 10667 10668 10669 10669 10670 10670 10670 10670 10670 10670 10670 10671 10670 10670 10670 10670 10670 10670 10670
10657 10658 10658 10658 10657 10656 10656 10657 10658 10658 10657 10657 10657 10657 10658 10659 10659 10660 10659 10660 10661 10661 10662 10663 10664 10665 10665 10666 10666 10666 10666 10666 10667 10667 10667 10667 10666 10666 10666 10667 10667 10667
10653 10653 10654 10654 10653 10653 10653 10654 10654 10653 10653 10653 10653 10653 10654 10655 10656 10656 10656 10656 10657 10658 10659 10659 10660 10661 10661 10662 10662 10662 10663 10663 10663 10663 10663 10663 10663 10663 10663 10663 10664 10664
10649 10649 10650 10650 10650 10650 10650 10650 10650 10650 10650 10649 10649 10649 10649 10651 10652 10652 10652 10653 10654 10655 10656 10656 10657 10657 10658 10658 10658 10659 10659 10660 10660 10660 10660 10660 10660 10660 10659 10659 10660 10661
10645 10645 10646 10646 10646 10646 10646 10646 10645 10646 10646 10645 10645 10645 10645 10647 10648 10648 10648 10649 10651 10652 10653 10653 10654 10654 10654 10655 10655 10656 10656 10656 10657 10657 10657 10658 10658 10657 10656 10655 10656 10657
10642 10641 10641 10642 10642 10642 10642 10641 10641 10641 10641 10640 10641 10640 10641 10643 10643 10643 10644 10645 10647 10648 10649 10650 10650 10651 10651 10651 10652 10652 10653 10653 10654 10654 10654 10655 10655 10654 10653 10652 10652 10653
10638 10636 10637 10637 10637 10638 10637 10637 10636 10636 10636 10636 10637 10637 10638 10639 10638 10639 10640 10641 10642 10644 10645 10646 10647 10647 10648 10648 10648 10649 10649 10650 10651 10651 10651 10652 10652 10651 10650 10649 10649 10649
10633 10633 10633 10632 10632 10633 10633 10632 10631 10630 10631 10632 10633 10633 10633 10634 10633 10634 10636 10637 10638 10639 10640 10641 10642 10643 10643 10644 10644 10645 10645 10646 10647 10647 10648 10648 10648 10648 10647 10646 10645 10645
10629 10629 10628 10628 10629 10629 10629 10628 10626 10626 10627 10628 10629 10629 10628 10629 10629 10630 10632 10633 10634 10634 10635 10636 10637 10638 10639 10639 10640 10640 10641 10642 10643 10643 10644 10644 10645 10644 10643 10643 10642 10642
10628 10626 10625 10624 10625 10625 10624 10623 10622 10623 10624 10625 10625 10624 10623 10624 10626 10627 10628 10629 10629 10630 10631 10632 10632 10633 10634 10634 10635 10635 10636 10637 10638 10638 10639 10640 10640 10640 10640 10639 10639 10639
10627 10624 10621 10621 10620 10619 10619 10618 10619 10619 10620 10621 10622 10620 10618 10620 10622 10623 10624 10624 10625 10626 10626 10627 10628 10629 10629 10630 10630 10630 10631 10631 10632 10633 10634 10634 10635 10636 10636 10636 10636 10635
10625 10620 10616 10614 10613 10613 10613 10613 10613 10614 10615 10617 10618 10616 10615 10616 10618 10619 10619 10620 10620 10621 10621 10622 10623 10624 10625 10625 10625 10626 10626 10626 10627 10628 10628 10629 10630 10630 10631 10631 10631 10630
10617 10613 10608 10606 10605 10605 10606 10608 10608 10609 10611 10612 10612 10612 10612 10612 10613 10614 10615 10616 10616 10616 10617 10617 10618 10619 10619 10620 10620 10620 10621 10621 10621 10622 10623 10623 10624 10624 10624 10625 10624 10623
10606 10604 10600 10598 10598 10599 10600 10602 10603 10604 10606 10607 10607 10607 10608 10608 10609 10609 10610 10611 10611 10611 10612 10612 10613 10614 10614 10615 10615 10615 10615 10616 10616 10616 10617 10617 10618 10618 10618 10617 10617 10616
10600 10600 10597 10594 10594 10595 10596 10597 10598 10599 10601 10602 10602 10602 10603 10604 10604 10604 10605 10605 10605 10606 10606 10607 10607 10608 10609 10609 10609 10610 10610 10610 10610 10611 10611 10611 10611 10611 10611 10611 10611 10610
10595 10595 10593 10591 10591 10592 10592 10593 10593 10594 10596 10596 10597 10598 10599 10600 10599 10599 10599 10600 10600 10601 10601 10601 10601 10602 10603 10603 10603 10604 10604 10604 10604 10604 10604 10605 10605 10605 10605 10605 10604 10604
10588 10588 10587 10587 10587 10588 10588 10588 10589 10590 10591 10591 10592 10593 10593 10594 10594 10594 10594 10594 10595 10596 10595 10595 10595 10596 10597 10597 10597 10597 10597 10597 10598 10598 10598 10598 10598 10598 10598 10598 10598 10597
10582 10582 10582 10582 10582 10582 10583 10583 10585 10586 10586 10587 10587 10587 10588 10588 10589 10590 10590 10589 10590 10590 10590 10591 10590 10590 10590 10591 10591 10591 10591 10591 10591 10591 10591 10591 10591 10592 10591 10591 10591 10590
10576 10576 10577 10577 10577 10577 10577 10578 10579 10581 10582 10582 10582 10582 10582 10582 10583 10584 10584 10585 10584 10584 10584 10585 10585 10584 10584 10585 10585 10585 10585 10584 10584 10584 10584 10584 10585 10584 10584 10584 10583 10582
10570 10570 10571 10572 10572 10572 10573 10572 10573 10575 10577 10577 10577 10576 10575 10575 10576 10578 10579 10580 10580 10578 10578 10578 10577 10577 10577 10578 10578 10578 10577 10577 10577 10576 10576 10577 10576 10576 10576 10575 10574 10573
10565 10565 10566 10567 10567 10568 10568 10568 10568 10569 10571 10571 10570 10570 10570 10569 10569 10571 10572 10574 10574 10572 10571 10572 10571 10570 10570 10569 10570 10570 10570 10570 10569 10569 10569 10569 10569 10568 10568 10567 10566 10565
10559 10560 10561 10562 10563 10563 10563 10564 10564 10564 10564 10564 10564 10564 10565 10564 10564 10564 10565 10566 10566 10564 10564 10565 10565 10564 10563 10562 10562 10562 10562 10562 10562 10562 10562 10562 10562 10561 10560 10560 10560 10557
10553 10554 10556 10557 10558 10559 10559 10559 10559 10559 10559 10559 10559 10558 10559 10559 10559 10559 10559 10559 10559 10558 10558 10558 10558 10557 10557 10556 10555 10554 10555 10555 10554 10555 10555 10555 10555 10555 10554 10554 10553 10550
10549 10550 10551 10552 10552 10554 10554 10554 10554 10554 10554 10554 10554 10554 10554 10554 10555 10555 10555 10555 10555 10554 10553 10553 10553 10553 10552 10552 10551 10550 10550 10549 10549 10549 10550 10549 10549 10549 10548 10548 10547 10544
10543 10544 10545 10545 10546 10547 10547 10548 10548 10548 10548 10548 10548 10549 10549 10549 10550 10550 10550 10550 10550 10549 10549 10548 10548 10548 10547 10547 10547 10546 10545 10545 10544 10544 10544 10543 10543 10543 10542 10541 10540 10539